| time (UTC) | temp F | wind direction | speed knots | gust knots | rain 1hr in | rain 24hr in | rain mn in | humidity % | barometer mb |
| 20260505111629 | 57 | 296 | 0.9 | 1.7 | 0.00 | 0.00 | 0.00 | 79 | 1012.1 |
| 20260505111121 | 57 | 294 | 0.0 | 1.7 | 0.00 | 0.00 | 0.00 | 79 | 1012.1 |
| 20260505110106 | 57 | 281 | 0.0 | 2.6 | 0.00 | 0.00 | 0.00 | 79 | 1012.4 |
| 20260505102009 | 58 | 251 | 1.7 | 2.6 | 0.00 | 0.00 | 0.00 | 77 | 1012.4 |
| 20260505101501 | 58 | 284 | 1.7 | 2.6 | 0.00 | 0.00 | 0.00 | 76 | 1012.4 |
| 20260505100954 | 58 | 260 | 1.7 | 3.5 | 0.00 | 0.00 | 0.00 | 75 | 1012.4 |
| 20260505100447 | 58 | 284 | 2.6 | 3.5 | 0.00 | 0.00 | 0.00 | 74 | 1012.4 |
| 20260505095940 | 58 | 253 | 1.7 | 3.5 | 0.00 | 0.00 | 0.00 | 73 | 1012.4 |
| 20260505095433 | 58 | 294 | 1.7 | 3.5 | 0.00 | 0.00 | 0.00 | 72 | 1012.4 |
| 20260505094925 | 58 | 267 | 1.7 | 2.6 | 0.00 | 0.00 | 0.00 | 71 | 1012.4 |
| 20260505093911 | 58 | 260 | 2.6 | 2.6 | 0.00 | 0.00 | 0.00 | 71 | 1012.4 |
| 20260505093404 | 58 | 310 | 0.9 | 3.5 | 0.00 | 0.00 | 0.00 | 71 | 1012.4 |
| 20260505092856 | 58 | 264 | 0.9 | 3.5 | 0.00 | 0.00 | 0.00 | 71 | 1012.8 |
| 20260505092349 | 58 | 301 | 0.0 | 3.5 | 0.00 | 0.00 | 0.00 | 71 | 1012.8 |
| 20260505091842 | 58 | 320 | 0.9 | 3.5 | 0.00 | 0.00 | 0.00 | 71 | 1012.8 |
| 20260505091335 | 58 | 344 | 0.0 | 2.6 | 0.00 | 0.00 | 0.00 | 71 | 1012.8 |
| 20260505090827 | 58 | 282 | 0.9 | 3.5 | 0.00 | 0.00 | 0.00 | 71 | 1012.8 |
| 20260505090320 | 58 | 278 | 0.9 | 3.5 | 0.00 | 0.00 | 0.00 | 70 | 1013.1 |
| 20260505085812 | 58 | 306 | 2.6 | 3.5 | 0.00 | 0.00 | 0.00 | 70 | 1012.8 |
| 20260505085305 | 58 | 327 | 0.0 | 2.6 | 0.00 | 0.00 | 0.00 | 71 | 1013.1 |
| 20260505084758 | 58 | 312 | 0.9 | 2.6 | 0.00 | 0.00 | 0.00 | 72 | 1013.1 |
| 20260505084251 | 59 | 308 | 2.6 | 2.6 | 0.00 | 0.00 | 0.00 | 72 | 1013.1 |
| 20260505083744 | 59 | 303 | 1.7 | 2.6 | 0.00 | 0.00 | 0.00 | 73 | 1013.1 |
| 20260505083236 | 59 | 272 | 2.6 | 3.5 | 0.00 | 0.00 | 0.00 | 73 | 1013.1 |
| 20260505082729 | 59 | 318 | 0.9 | 3.5 | 0.00 | 0.00 | 0.00 | 74 | 1013.1 |
| 20260505081714 | 58 | 330 | 1.7 | 2.6 | 0.00 | 0.00 | 0.00 | 77 | 1013.1 |
| 20260505080153 | 58 | 321 | 0.9 | 1.7 | 0.00 | 0.00 | 0.00 | 79 | 1013.4 |
| 20260505075140 | 58 | 304 | 0.0 | 1.7 | 0.00 | 0.00 | 0.00 | 82 | 1013.4 |
| 20260505074631 | 58 | 285 | 0.0 | 0.9 | 0.00 | 0.00 | 0.00 | 84 | 1013.4 |
| 20260505074124 | 58 | 271 | 0.9 | 1.7 | 0.00 | 0.00 | 0.00 | 84 | 1013.4 |
| 20260505073617 | 58 | 251 | 0.9 | 1.7 | 0.00 | 0.00 | 0.00 | 84 | 1013.4 |
| 20260505072602 | 58 | 276 | 0.0 | 0.0 | 0.00 | 0.00 | 0.00 | 84 | 1013.4 |
| 20260505072055 | 58 | 283 | 0.0 | 0.0 | 0.00 | 0.00 | 0.00 | 85 | 1013.4 |
| 20260505071548 | 58 | 317 | 0.0 | 0.9 | 0.00 | 0.00 | 0.00 | 85 | 1013.8 |
| 20260505071040 | 58 | 317 | 0.0 | 0.9 | 0.00 | 0.00 | 0.00 | 85 | 1013.4 |
| 20260505070026 | 58 | 316 | 0.9 | 1.7 | 0.00 | 0.00 | 0.00 | 85 | 1013.4 |
| 20260505065518 | 58 | 318 | 0.9 | 1.7 | 0.00 | 0.00 | 0.00 | 86 | 1013.4 |
| 20260505065011 | 58 | 336 | 0.0 | 1.7 | 0.00 | 0.00 | 0.00 | 86 | 1013.4 |
| 20260505064504 | 58 | 346 | 0.0 | 1.7 | 0.00 | 0.00 | 0.00 | 86 | 1013.4 |
| 20260505063956 | 58 | 311 | 0.9 | 1.7 | 0.00 | 0.00 | 0.00 | 87 | 1013.4 |
| 20260505063449 | 58 | 263 | 0.9 | 1.7 | 0.00 | 0.00 | 0.00 | 87 | 1013.4 |
| 20260505062943 | 58 | 288 | 0.9 | 1.7 | 0.00 | 0.00 | 0.00 | 87 | 1013.4 |
| 20260505062435 | 58 | 275 | 0.0 | 2.6 | 0.00 | 0.00 | 0.00 | 87 | 1013.8 |
| 20260505061928 | 57 | 290 | 0.9 | 3.5 | 0.00 | 0.00 | 0.00 | 87 | 1013.4 |
| 20260505061420 | 57 | 251 | 2.6 | 2.6 | 0.00 | 0.00 | 0.00 | 87 | 1013.4 |
| 20260505060913 | 57 | 245 | 1.7 | 2.6 | 0.00 | 0.00 | 0.00 | 87 | 1013.4 |
| 20260505060405 | 58 | 251 | 1.7 | 3.5 | 0.00 | 0.00 | 0.00 | 86 | 1013.4 |
| 20260505055858 | 58 | 290 | 0.9 | 3.5 | 0.00 | 0.00 | 0.00 | 86 | 1013.8 |
| 20260505055351 | 58 | 227 | 2.6 | 2.6 | 0.00 | 0.00 | 0.00 | 86 | 1013.8 |
| 20260505054844 | 58 | 252 | 2.6 | 2.6 | 0.00 | 0.00 | 0.00 | 86 | 1013.8 |
| 20260505053830 | 58 | 265 | 0.9 | 2.6 | 0.00 | 0.00 | 0.00 | 86 | 1013.8 |
| 20260505053322 | 58 | 270 | 2.6 | 2.6 | 0.00 | 0.00 | 0.00 | 86 | 1013.8 |
| 20260505052814 | 58 | 240 | 1.7 | 3.5 | 0.00 | 0.00 | 0.00 | 85 | 1013.8 |
| 20260505052307 | 58 | 228 | 1.7 | 3.5 | 0.00 | 0.00 | 0.00 | 85 | 1013.8 |
| 20260505051800 | 58 | 293 | 1.7 | 3.5 | 0.00 | 0.00 | 0.00 | 85 | 1013.8 |
| 20260505051253 | 58 | 288 | 0.9 | 3.5 | 0.00 | 0.00 | 0.00 | 85 | 1013.8 |
| 20260505050746 | 58 | 285 | 1.7 | 3.5 | 0.00 | 0.00 | 0.00 | 85 | 1013.8 |
| 20260505050239 | 58 | 284 | 0.0 | 5.2 | 0.00 | 0.00 | 0.00 | 85 | 1013.8 |
| 20260505041633 | 58 | 231 | 3.5 | 5.2 | 0.00 | 0.00 | 0.00 | 85 | 1014.1 |
| 20260505041126 | 58 | 259 | 1.7 | 6.1 | 0.00 | 0.00 | 0.00 | 85 | 1014.1 |
| 20260505040619 | 58 | 244 | 3.5 | 6.1 | 0.00 | 0.00 | 0.00 | 84 | 1014.1 |
| 20260505040111 | 58 | 237 | 3.5 | 6.1 | 0.00 | 0.00 | 0.00 | 84 | 1014.1 |
| 20260505035604 | 58 | 281 | 3.5 | 7.0 | 0.00 | 0.00 | 0.00 | 84 | 1014.1 |
| 20260505035057 | 58 | 261 | 5.2 | 7.0 | 0.00 | 0.00 | 0.00 | 83 | 1014.1 |
| 20260505034549 | 58 | 242 | 3.5 | 7.8 | 0.00 | 0.00 | 0.00 | 82 | 1014.1 |
| 20260505034042 | 58 | 265 | 2.6 | 7.8 | 0.00 | 0.00 | 0.00 | 81 | 1013.8 |
| 20260505033535 | 58 | 259 | 6.1 | 7.8 | 0.00 | 0.00 | 0.00 | 80 | 1013.8 |
| 20260505033028 | 58 | 240 | 4.3 | 7.8 | 0.00 | 0.00 | 0.00 | 80 | 1013.8 |
| 20260505032520 | 58 | 253 | 3.5 | 7.0 | 0.00 | 0.00 | 0.00 | 80 | 1013.8 |
| 20260505032013 | 58 | 237 | 3.5 | 8.7 | 0.00 | 0.00 | 0.00 | 79 | 1013.8 |
| 20260505031506 | 58 | 222 | 7.0 | 8.7 | 0.00 | 0.00 | 0.00 | 80 | 1013.8 |
| 20260505031000 | 58 | 234 | 4.3 | 7.8 | 0.00 | 0.00 | 0.00 | 79 | 1013.4 |
| 20260505030451 | 58 | 246 | 5.2 | 7.8 | 0.00 | 0.00 | 0.00 | 79 | 1013.4 |
| 20260505025945 | 59 | 265 | 5.2 | 8.7 | 0.00 | 0.00 | 0.00 | 78 | 1013.4 |
| 20260505023915 | 59 | 231 | 4.3 | 9.6 | 0.00 | 0.00 | 0.00 | 78 | 1013.4 |
| 20260505023407 | 59 | 232 | 7.8 | 12.2 | 0.00 | 0.00 | 0.00 | 78 | 1013.4 |
| 20260505022900 | 59 | 258 | 6.1 | 12.2 | 0.00 | 0.00 | 0.00 | 78 | 1013.4 |
| 20260505022353 | 59 | 192 | 5.2 | 8.7 | 0.00 | 0.00 | 0.00 | 78 | 1013.4 |
| 20260505021846 | 59 | 247 | 6.1 | 12.2 | 0.00 | 0.00 | 0.00 | 79 | 1013.4 |
| 20260505021339 | 59 | 280 | 7.8 | 13.0 | 0.00 | 0.00 | 0.00 | 78 | 1013.4 |
| 20260505020831 | 59 | 230 | 7.8 | 13.0 | 0.00 | 0.00 | 0.00 | 78 | 1013.4 |
| 20260505020324 | 59 | 267 | 9.6 | 13.9 | 0.00 | 0.00 | 0.00 | 77 | 1013.4 |
| 20260505015817 | 59 | 237 | 9.6 | 14.8 | 0.00 | 0.00 | 0.00 | 76 | 1013.4 |
| 20260505015310 | 60 | 246 | 9.6 | 14.8 | 0.00 | 0.00 | 0.00 | 76 | 1013.4 |
| 20260505014803 | 60 | 252 | 10.4 | 14.8 | 0.00 | 0.00 | 0.00 | 73 | 1013.1 |
| 20260505014255 | 60 | 263 | 7.0 | 14.8 | 0.00 | 0.00 | 0.00 | 74 | 1013.4 |
| 20260505013240 | 60 | 231 | 10.4 | 13.0 | 0.00 | 0.00 | 0.00 | 74 | 1013.4 |
| 20260505012733 | 60 | 242 | 7.8 | 13.0 | 0.00 | 0.00 | 0.00 | 75 | 1013.4 |
| 20260505012226 | 60 | 277 | 5.2 | 12.2 | 0.00 | 0.00 | 0.00 | 75 | 1013.8 |
| 20260505011719 | 60 | 246 | 8.7 | 12.2 | 0.00 | 0.00 | 0.00 | 75 | 1013.8 |
| 20260505011211 | 60 | 289 | 4.3 | 13.0 | 0.00 | 0.00 | 0.00 | 75 | 1013.8 |
| 20260505010703 | 60 | 269 | 3.5 | 13.0 | 0.00 | 0.00 | 0.00 | 75 | 1013.8 |
| 20260505005649 | 61 | 248 | 3.5 | 19.1 | 0.00 | 0.00 | 0.00 | 75 | 1013.4 |
| 20260505005142 | 60 | 251 | 6.1 | 19.1 | 0.00 | 0.00 | 0.00 | 77 | 1013.8 |
| 20260505004635 | 60 | 234 | 7.0 | 15.6 | 0.00 | 0.00 | 0.00 | 77 | 1013.8 |
| 20260505003620 | 61 | 186 | 4.3 | 14.8 | 0.00 | 0.00 | 0.00 | 74 | 1013.8 |
| 20260505003113 | 61 | 234 | 7.0 | 16.5 | 0.00 | 0.00 | 0.00 | 74 | 1013.8 |
| 20260505002605 | 61 | 236 | 8.7 | 16.5 | 0.00 | 0.00 | 0.00 | 73 | 1013.8 |
| 20260505002058 | 61 | 224 | 3.5 | 13.9 | 0.00 | 0.00 | 0.00 | 75 | 1013.8 |
| 20260505001551 | 61 | 262 | 5.2 | 14.8 | 0.00 | 0.00 | 0.00 | 74 | 1013.8 |
| 20260505001044 | 61 | 273 | 9.6 | 14.8 | 0.00 | 0.00 | 0.00 | 74 | 1013.8 |
| 20260505000537 | 61 | 260 | 10.4 | 18.2 | 0.00 | 0.00 | 0.00 | 75 | 1013.8 |
| 20260505000030 | 60 | 267 | 11.3 | 18.2 | 0.00 | 0.00 | 0.00 | 75 | 1013.8 |
| 20260504235015 | 61 | 216 | 7.8 | 15.6 | 0.00 | 0.00 | 0.00 | 76 | 1013.4 |
| 20260504234508 | 62 | 240 | 12.2 | 19.1 | 0.00 | 0.00 | 0.00 | 75 | 1013.8 |
| 20260504233453 | 62 | 267 | 10.4 | 16.5 | 0.00 | 0.00 | 0.00 | 73 | 1013.4 |
| 20260504232945 | 62 | 226 | 9.6 | 16.5 | 0.00 | 0.00 | 0.00 | 73 | 1013.4 |
| 20260504232438 | 62 | 240 | 10.4 | 16.5 | 0.00 | 0.00 | 0.00 | 73 | 1013.4 |
| 20260504231931 | 61 | 251 | 12.2 | 14.8 | 0.00 | 0.00 | 0.00 | 74 | 1013.8 |
| 20260504231424 | 61 | 237 | 13.9 | 14.8 | 0.00 | 0.00 | 0.00 | 74 | 1013.8 |
| 20260504230916 | 62 | 243 | 9.6 | 15.6 | 0.00 | 0.00 | 0.00 | 75 | 1013.8 |
| 20260504225901 | 62 | 225 | 11.3 | 18.2 | 0.00 | 0.00 | 0.00 | 73 | 1013.8 |
| 20260504225354 | 63 | 263 | 4.3 | 18.2 | 0.00 | 0.00 | 0.00 | 72 | 1013.8 |
| 20260504224847 | 62 | 272 | 12.2 | 16.5 | 0.00 | 0.00 | 0.00 | 73 | 1013.8 |
| 20260504223325 | 63 | 263 | 11.3 | 19.1 | 0.00 | 0.00 | 0.00 | 71 | 1014.1 |
| 20260504222819 | 62 | 260 | 6.1 | 20.0 | 0.00 | 0.00 | 0.00 | 73 | 1014.1 |
| 20260504222311 | 63 | 237 | 11.3 | 20.0 | 0.00 | 0.00 | 0.00 | 71 | 1014.1 |
| 20260504221803 | 63 | 277 | 8.7 | 20.9 | 0.00 | 0.00 | 0.00 | 72 | 1013.8 |
| 20260504215735 | 62 | 215 | 7.0 | 15.6 | 0.00 | 0.00 | 0.00 | 71 | 1014.5 |
| 20260504215227 | 63 | 227 | 7.8 | 15.6 | 0.00 | 0.00 | 0.00 | 72 | 1014.5 |
| 20260504214720 | 64 | 252 | 12.2 | 15.6 | 0.00 | 0.00 | 0.00 | 68 | 1014.5 |
| 20260504214213 | 64 | 328 | 4.3 | 18.2 | 0.00 | 0.00 | 0.00 | 69 | 1014.8 |
| 20260504213706 | 63 | 232 | 6.1 | 18.2 | 0.00 | 0.00 | 0.00 | 69 | 1014.8 |
| 20260504213158 | 64 | 207 | 8.7 | 15.6 | 0.00 | 0.00 | 0.00 | 68 | 1014.8 |
| 20260504212651 | 63 | 181 | 9.6 | 14.8 | 0.00 | 0.00 | 0.00 | 70 | 1014.5 |
| 20260504212143 | 64 | 277 | 7.8 | 13.9 | 0.00 | 0.00 | 0.00 | 68 | 1014.5 |
| 20260504211636 | 63 | 216 | 5.2 | 16.5 | 0.00 | 0.00 | 0.00 | 68 | 1014.8 |
| 20260504210621 | 64 | 220 | 13.0 | 16.5 | 0.00 | 0.00 | 0.00 | 65 | 1014.8 |
| 20260504210114 | 62 | 310 | 3.5 | 16.5 | 0.00 | 0.00 | 0.00 | 67 | 1014.8 |
| 20260504205100 | 63 | 226 | 11.3 | 14.8 | 0.00 | 0.00 | 0.00 | 65 | 1014.8 |
| 20260504204553 | 64 | 250 | 7.0 | 15.6 | 0.00 | 0.00 | 0.00 | 65 | 1014.8 |
| 20260504204046 | 63 | 211 | 9.6 | 15.6 | 0.00 | 0.00 | 0.00 | 65 | 1014.8 |
| 20260504203537 | 64 | 232 | 9.6 | 16.5 | 0.00 | 0.00 | 0.00 | 63 | 1014.8 |
| 20260504203030 | 63 | 173 | 9.6 | 16.5 | 0.00 | 0.00 | 0.00 | 66 | 1014.8 |
| 20260504202523 | 63 | 211 | 11.3 | 15.6 | 0.00 | 0.00 | 0.00 | 63 | 1014.8 |
| 20260504202016 | 64 | 233 | 11.3 | 15.6 | 0.00 | 0.00 | 0.00 | 61 | 1014.8 |
| 20260504201509 | 63 | 223 | 12.2 | 15.6 | 0.00 | 0.00 | 0.00 | 62 | 1014.8 |
| 20260504201001 | 63 | 255 | 7.8 | 15.6 | 0.00 | 0.00 | 0.00 | 61 | 1014.5 |
| 20260504200454 | 64 | 259 | 7.8 | 16.5 | 0.00 | 0.00 | 0.00 | 60 | 1014.8 |
| 20260504195946 | 64 | 220 | 13.9 | 16.5 | 0.00 | 0.00 | 0.00 | 58 | 1014.8 |
| 20260504195440 | 64 | 210 | 5.2 | 13.9 | 0.00 | 0.00 | 0.00 | 59 | 1014.5 |
| 20260504194932 | 63 | 218 | 5.2 | 13.9 | 0.00 | 0.00 | 0.00 | 62 | 1014.8 |
| 20260504194424 | 63 | 208 | 8.7 | 14.8 | 0.00 | 0.00 | 0.00 | 62 | 1014.8 |
| 20260504193917 | 63 | 273 | 9.6 | 15.6 | 0.00 | 0.00 | 0.00 | 59 | 1014.8 |
| 20260504193410 | 64 | 175 | 8.7 | 15.6 | 0.00 | 0.00 | 0.00 | 61 | 1014.8 |
| 20260504192903 | 63 | 299 | 6.1 | 16.5 | 0.00 | 0.00 | 0.00 | 62 | 1014.8 |
| 20260504192356 | 63 | 261 | 9.6 | 16.5 | 0.00 | 0.00 | 0.00 | 60 | 1014.8 |
| 20260504191849 | 63 | 248 | 10.4 | 13.9 | 0.00 | 0.00 | 0.00 | 64 | 1014.8 |
| 20260504191341 | 63 | 257 | 6.1 | 15.6 | 0.00 | 0.00 | 0.00 | 64 | 1014.5 |
| 20260504190835 | 62 | 231 | 7.8 | 15.6 | 0.00 | 0.00 | 0.00 | 62 | 1014.8 |
| 20260504190326 | 63 | 235 | 8.7 | 14.8 | 0.00 | 0.00 | 0.00 | 61 | 1014.8 |
| 20260504185819 | 63 | 264 | 7.8 | 13.9 | 0.00 | 0.00 | 0.00 | 60 | 1014.8 |
| 20260504185312 | 63 | 258 | 10.4 | 14.8 | 0.00 | 0.00 | 0.00 | 60 | 1015.1 |
| 20260504184805 | 62 | 238 | 10.4 | 16.5 | 0.00 | 0.00 | 0.00 | 62 | 1014.8 |
| 20260504184257 | 61 | 313 | 6.1 | 16.5 | 0.00 | 0.00 | 0.00 | 65 | 1014.8 |
| 20260504183751 | 62 | 236 | 8.7 | 15.6 | 0.00 | 0.00 | 0.00 | 64 | 1014.8 |
| 20260504183243 | 62 | 238 | 10.4 | 18.2 | 0.00 | 0.00 | 0.00 | 63 | 1015.1 |
| 20260504182736 | 62 | 226 | 13.9 | 15.6 | 0.00 | 0.00 | 0.00 | 64 | 1014.8 |
| 20260504181721 | 62 | 243 | 5.2 | 15.6 | 0.00 | 0.00 | 0.00 | 66 | 1014.8 |
| 20260504180706 | 61 | 228 | 10.4 | 16.5 | 0.00 | 0.00 | 0.00 | 66 | 1015.1 |
| 20260504180159 | 61 | 233 | 13.0 | 19.1 | 0.00 | 0.00 | 0.00 | 66 | 1015.1 |
| 20260504175145 | 62 | 226 | 5.2 | 15.6 | 0.00 | 0.00 | 0.00 | 66 | 1014.8 |
| 20260504174638 | 62 | 206 | 11.3 | 15.6 | 0.00 | 0.00 | 0.00 | 66 | 1014.8 |
| 20260504173623 | 62 | 222 | 10.4 | 16.5 | 0.00 | 0.00 | 0.00 | 64 | 1014.8 |
| 20260504173115 | 62 | 226 | 7.8 | 13.9 | 0.00 | 0.00 | 0.00 | 66 | 1014.8 |
| 20260504172608 | 61 | 273 | 7.0 | 13.9 | 0.00 | 0.00 | 0.00 | 68 | 1014.8 |
| 20260504172101 | 61 | 229 | 7.8 | 13.0 | 0.00 | 0.00 | 0.00 | 66 | 1014.8 |
| 20260504171553 | 62 | 262 | 8.7 | 11.3 | 0.00 | 0.00 | 0.00 | 68 | 1014.5 |
| 20260504171046 | 61 | 208 | 5.2 | 13.0 | 0.00 | 0.00 | 0.00 | 70 | 1014.5 |
| 20260504160412 | 63 | 259 | 0.9 | 3.5 | 0.00 | 0.00 | 0.00 | 63 | 1014.1 |
| 20260504150752 | 61 | 47 | 1.7 | 2.6 | 0.00 | 0.00 | 0.00 | 70 | 1013.8 |
| 20260504150245 | 61 | 350 | 0.9 | 2.6 | 0.00 | 0.00 | 0.00 | 72 | 1014.1 |
| 20260504141132 | 57 | 248 | 0.0 | 0.9 | 0.00 | 0.00 | 0.00 | 80 | 1013.8 |
| 20260504140625 | 57 | 253 | 0.9 | 0.9 | 0.00 | 0.00 | 0.00 | 80 | 1013.8 |
| 20260504140118 | 57 | 263 | 0.0 | 0.9 | 0.00 | 0.00 | 0.00 | 80 | 1013.8 |
| 20260504130459 | 57 | 272 | 0.9 | 1.7 | 0.00 | 0.00 | 0.00 | 79 | 1013.4 |